Weather History for 68828 - August, 2013

Change the Weather History Date:

Sunday, August 4, 2013

  Actual Average Record
Temperature  
Mean Temperature 68 °F -  
Max Temperature 82 °F 64 °F - ()
Min Temperature 53 °F 45 °F - ()
Cooling Degree Days 2    
Growing Degree Days 18 (Base 50)    
Moisture  
Dew Point 39 °F    
Average Humidity 39    
Maximum Humidity 94    
Minimum Humidity 11    
Precipitation  
Precipitation 0.00 in - - ()
Sea Level Pressure  
Sea Level Pressure 30.14 in    
Wind  
Wind Speed 8 mph ()    
Max Wind Speed 16 mph    
Max Gust Speed -    
Visibility 8.2 miles    
Events Fog    
T = Trace of Precipitation, MM = Missing Value Source: Averaged Metar Reports

Daily Weather History Graph

Daily Weather History Graph

Search for Another Location

Airport or City:

Trip Planner

Search our weather history database for the weather conditions in past years. The results will help you decide how hot, cold, wet, or windy it might be!

Date:

Astronomy

Aug. 04, 2013 Rise Set
Actual Time 7:20 AM SAST 5:53 PM SAST
Civil Twilight 6:54 AM SAST 6:19 PM SAST
Nautical Twilight 6:24 AM SAST 6:49 PM SAST
Astronomical Twilight 5:54 AM SAST 7:18 PM SAST
Moon 5:19 AM SAST (8/4) 3:55 PM SAST (8/4)
Length of Visible Light 11h 25m
Length of Day
10h 32m
Waning Crescent, 6% of the Moon is Illuminated
Aug 4
Waning Crescent
Aug 6
New
Aug 14
First Quarter
Aug 21
Full
Aug 28
Last Quarter

Hourly Weather History & Observations

Time (SAST) Temp. Dew Point Humidity Pressure Visibility Wind Dir Wind Speed Gust Speed Precip Events Conditions
12:00 AM 53.6 °F 37.4 °F 54% 30.18 in - North 4.6 mph - N/A   Clear
1:00 AM 59.0 °F 33.8 °F 39% 30.15 in - NNW 3.5 mph - N/A   Clear
2:00 AM 66 °F 33 °F 18% 30.16 in 19 mi NNW 6.9 mph - -  
2:00 AM 66.2 °F 33.8 °F 30% 30.15 in - North 5.8 mph - N/A   Clear
3:00 AM 66.2 °F 33.8 °F 30% 30.15 in - North 11.5 mph - N/A   Clear
4:00 AM 66.2 °F 33.8 °F 30% 30.15 in - North 12.7 mph - N/A   Clear
5:00 AM 67 °F 32 °F 16% 30.14 in 12 mi North 12.7 mph - -  
5:00 AM 68.0 °F 32.0 °F 26% 30.12 in - North 12.7 mph - N/A   Clear
6:00 AM 68.0 °F 32.0 °F 26% 30.12 in - North 11.5 mph - N/A   Clear
7:00 AM 66.2 °F 32.0 °F 28% 30.12 in - North 12.7 mph - N/A   Clear
8:00 AM 64.4 °F 33.8 °F 32% 30.15 in - NNW 8.1 mph - N/A   Clear
9:00 AM 73.4 °F 37.4 °F 27% 30.15 in - NNW 9.2 mph - N/A   Clear
10:00 AM 77.0 °F 37.4 °F 24% 30.15 in - NNW 13.8 mph - N/A   Clear
11:00 AM 78 °F 36 °F 13% 30.18 in 12 mi NNW 12.7 mph - -  
12:00 PM 80.6 °F 33.8 °F 18% 30.15 in - NNW 16.1 mph - N/A   Clear
1:00 PM 82.4 °F 33.8 °F 17% 30.12 in - NNW 15.0 mph - N/A   Clear
2:00 PM 81 °F 35 °F 11% 30.12 in 12 mi NNW 16.1 mph - -   Clear
2:00 PM 80.6 °F 33.8 °F 18% 30.09 in - NNW 16.1 mph - N/A   Clear
3:00 PM 80.6 °F 35.6 °F 20% 30.09 in - NNW 11.5 mph - N/A   Clear
4:00 PM 66.2 °F 48.2 °F 52% 30.12 in - South 13.8 mph - N/A   Clear
5:00 PM 60.8 °F 55.4 °F 82% 30.12 in 6.2 mi SW 6.9 mph - N/A   Partly Cloudy
6:00 PM 55.4 °F 53.6 °F 94% 30.12 in - SSW 9.2 mph - N/A   Mostly Cloudy
7:00 PM 53.6 °F 51.8 °F 94% 30.15 in 0.6 mi Variable 2.3 mph - N/A Fog Fog
8:00 PM 54 °F 53 °F 93% 30.19 in 2 mi WNW 3.5 mph - -   Mist
8:00 PM 53.6 °F 51.8 °F 94% 30.18 in 1.9 mi Variable 2.3 mph - N/A   Overcast